Location: Big Bend
(41.8409°N, 79.0042°W)
Time: 03:47:30
(UTC+00:00)

BlueWalker 3 - Visible Passes

Search period start: 08 October 2024 00:00
Search period end: 18 October 2024 00:00
Orbit: 473 x 485 km, 53.2° (Epoch: 07 October)

Date Brightness Start Highest point End Pass type
(mag) Time Alt. Az. Time Alt. Az. Time Alt. Az.
08 Oct 5.1 08:23:05 13° ENE 08:23:05 13° ENE 08:23:33 10° ENE visible
08 Oct 2.8 09:57:17 28° NW 09:58:06 32° NNW 10:01:28 10° NE visible
09 Oct 3.0 09:30:19 33° N 09:30:19 33° N 09:33:12 10° NE visible
10 Oct 3.9 09:03:14 23° NNE 09:03:14 23° NNE 09:04:55 10° NE visible
10 Oct 4.0 10:37:57 10° NW 10:40:14 15° N 10:42:30 10° NNE visible
11 Oct 4.9 08:36:05 13° NE 08:36:05 13° NE 08:36:34 10° NE visible
11 Oct 4.0 10:10:16 13° NW 10:11:47 16° N 10:14:07 10° NNE visible
12 Oct 3.9 09:43:03 16° NNW 09:43:18 16° NNW 09:45:43 10° NNE visible
13 Oct 4.2 09:15:46 16° N 09:15:46 16° N 09:17:17 10° NNE visible
13 Oct 4.2 10:51:42 10° NNW 10:53:54 15° N 10:56:07 10° NE visible
14 Oct 4.9 08:48:26 12° NNE 08:48:26 12° NNE 08:48:48 10° NNE visible
14 Oct 4.2 10:23:11 10° NNW 10:25:20 15° N 10:27:30 10° NE visible
15 Oct 4.2 09:55:14 12° NNW 09:56:43 14° N 09:58:49 10° NE visible
16 Oct 4.3 09:27:51 14° N 09:28:03 14° N 09:30:07 10° NE visible
17 Oct 4.7 09:00:26 13° NNE 09:00:26 13° NNE 09:01:23 10° NE visible
17 Oct 3.6 10:35:11 10° NW 10:38:19 25° NNE 10:41:26 10° E visible
